Location: Chowchilla Mountain
(37.5599°N, 119.7546°W)
Time: 22:51:25
(UTC+00:00)

USA 229 DEB - Pass Details

Date: 05 August 2024
Orbit: 881 x 1330 km, 63.4° (Epoch: 31 August)

Event Time Altitude Azimuth Distance (km) Brightness Sun altitude
Rises 12:02:28 0° 326° (NW) 4,049 6.7 -12.2°
Reaches altitude 10° 12:05:06 10° 326° (NW) 3,141 6.1 -11.7°
Maximum altitude 12:12:47 82° 240° (WSW) 1,292 4.1 -10.4°
Drops below altitude 10° 12:21:00 10° 154° (SSE) 3,345 6.3 -9.0°
Sets 12:23:53 0° 153° (SSE) 4,324 6.9 -8.5°
